Location: Arbon
(43.0005°N, 0.7472°E)
Time: 22:53:53
(UTC+00:00)

Altair - Pass Details

Date: 30 November 2020
Orbit: 1501 x 1682 km, 47.2° (Epoch: 26 January)

Event Time Altitude Azimuth Distance (km) Brightness Sun altitude
Rises 19:45:03 0° 229° (SW) 4,749 10.6 -36.2°
Reaches altitude 10° 19:48:11 10° 227° (SW) 3,743 9.9 -36.8°
Enters shadow 19:55:36 56° 198° (SSW) 1,773 7.7 -38.1°
Maximum altitude 19:57:29 67° 147° (SSE) 1,627 - -38.5°
Drops below altitude 10° 20:06:34 10° 67° (ENE) 3,660 - -40.1°
Sets 20:09:35 0° 65° (ENE) 4,638 - -40.7°
